Location: Muenchen
(48.1800°N, 11.5800°E)
Time: 03:53:08
(UTC+02:00)

Vanguard 2 Rocket - Visible Passes

Search period start: 23 June 2017 00:00
Search period end: 03 July 2017 00:00
Orbit: 554 x 3328 km, 32.9° (Epoch: 21 June)

Date Brightness Start Highest point End Pass type
(mag) Time Alt. Az. Time Alt. Az. Time Alt. Az.
25 Jun 9.0 22:44:37 10° S 22:47:02 11° SSE 22:47:10 11° SSE visible
26 Jun 8.9 23:56:03 10° SSW 23:58:07 14° SSW 23:58:07 14° SSW visible
27 Jun 8.5 22:55:56 10° SSW 23:01:22 17° S 23:02:59 16° SSE visible
28 Jun 8.9 21:55:54 10° SSW 22:01:58 17° SSE 22:06:34 10° SE visible
29 Jun 8.5 00:09:17 10° SW 00:13:33 19° SSW 00:13:33 19° SSW visible
29 Jun 8.3 23:08:41 10° SW 23:15:40 22° S 23:18:04 19° SSE visible
30 Jun 9.1 01:23:49 10° SW 01:23:55 10° SW 01:23:55 10° SW visible
30 Jun 8.9 22:08:02 10° SW 22:16:16 23° S 22:21:56 10° ESE visible
01 Jul 8.4 00:22:59 10° WSW 00:28:17 21° SSW 00:28:17 21° SSW visible
01 Jul 8.3 23:22:01 10° SW 23:29:54 26° S 23:32:31 21° SSE visible
02 Jul 9.2 01:38:16 10° WSW 01:38:21 10° WSW 01:38:21 10° WSW visible
02 Jul 8.8 22:20:57 10° SW 22:30:31 28° S 22:36:39 10° ESE visible
